BAW73NA EGLL-LSZH

Flight info

Callsign BAW73NA
Flight time 1h 14m
Altitude 29000
Route DET1J DET L6 DVR UL9 KONAN DCT KOK DCT SISGA DCT RITAX DCT KRH M150 LAMGO/N0429F270 T721 SUL/N0416F250 T721 RILAX RILAX2A
Aircraft A21N/M-V/N

Departure

Time 2026-04-26 14:55
Airport London Heathrow Airport (EGLL)

Arrival

Time 2026-04-26 16:09
Airport Zürich Airport (LSZH)
Time Latitude Longitude Altitude Speed Heading
2026-04-26 14:35 51.46916 -0.48212 86 ft 0 kts 89°
2026-04-26 14:45 51.46916 -0.48224 86 ft 2 kts 91°
2026-04-26 14:45 51.46916 -0.48245 89 ft 3 kts 95°
2026-04-26 14:45 51.46920 -0.48287 90 ft 3 kts 107°
2026-04-26 14:45 51.46926 -0.48317 90 ft 3 kts 121°
2026-04-26 14:46 51.46937 -0.48343 89 ft 3 kts 147°
2026-04-26 14:46 51.46949 -0.48356 90 ft 1 kts 178°
2026-04-26 14:46 51.46950 -0.48356 90 ft 0 kts 179°
2026-04-26 14:49 51.46945 -0.48356 91 ft 0 kts 179°
2026-04-26 14:49 51.46920 -0.48355 87 ft 7 kts 179°
2026-04-26 14:50 51.46868 -0.48355 88 ft 8 kts 180°
2026-04-26 14:50 51.46835 -0.48355 86 ft 3 kts 180°
2026-04-26 14:50 51.46813 -0.48354 86 ft 0 kts 179°
2026-04-26 14:51 51.46789 -0.48354 86 ft 9 kts 179°
2026-04-26 14:51 51.46746 -0.48409 89 ft 9 kts 242°
2026-04-26 14:52 51.46685 -0.48468 88 ft 12 kts 185°
2026-04-26 14:52 51.46591 -0.48467 87 ft 5 kts 180°
2026-04-26 14:52 51.46590 -0.48467 87 ft 0 kts 180°
2026-04-26 14:52 51.46507 -0.48465 87 ft 22 kts 171°
2026-04-26 14:53 51.46479 -0.48391 87 ft 18 kts 87°
2026-04-26 14:53 51.46479 -0.48270 90 ft 0 kts 90°
2026-04-26 14:54 51.46479 -0.48101 89 ft 44 kts 90°
2026-04-26 14:55 51.46483 -0.47214 87 ft 113 kts 89°
2026-04-26 14:55 51.46490 -0.45603 112 ft 174 kts 89°
2026-04-26 14:55 51.46479 -0.43562 796 ft 189 kts 90°
2026-04-26 14:55 51.46469 -0.41367 1586 ft 204 kts 94°
2026-04-26 14:56 51.46014 -0.39193 2454 ft 211 kts 120°
2026-04-26 14:56 51.45298 -0.37145 3334 ft 216 kts 120°
2026-04-26 14:56 51.44592 -0.35010 4223 ft 207 kts 116°
2026-04-26 14:56 51.44053 -0.32913 4418 ft 210 kts 112°
2026-04-26 14:57 51.43489 -0.30507 4604 ft 237 kts 108°
2026-04-26 14:57 51.43028 -0.28046 5657 ft 225 kts 105°
2026-04-26 14:57 51.42658 -0.25672 6703 ft 217 kts 104°
2026-04-26 14:57 51.42315 -0.23274 7302 ft 223 kts 103°
2026-04-26 14:58 51.41982 -0.20822 7921 ft 227 kts 103°
2026-04-26 14:58 51.41647 -0.18328 8546 ft 230 kts 103°
2026-04-26 14:58 51.41311 -0.15794 9161 ft 234 kts 103°
2026-04-26 14:58 51.40966 -0.13221 9760 ft 238 kts 103°
2026-04-26 14:59 51.40606 -0.10621 10357 ft 240 kts 104°
2026-04-26 14:59 51.40235 -0.07981 10824 ft 250 kts 104°
2026-04-26 14:59 51.39824 -0.05090 10861 ft 281 kts 104°
2026-04-26 14:59 51.39526 -0.03008 10940 ft 299 kts 104°
2026-04-26 15:00 51.38866 0.01569 11293 ft 329 kts 104°
2026-04-26 15:00 51.38340 0.05249 11645 ft 348 kts 104°
2026-04-26 15:00 51.37786 0.09120 12044 ft 365 kts 104°
2026-04-26 15:00 51.37207 0.13164 12470 ft 380 kts 104°
2026-04-26 15:01 51.36610 0.17352 12978 ft 391 kts 103°
2026-04-26 15:01 51.36005 0.21612 13765 ft 394 kts 104°
2026-04-26 15:01 51.35393 0.25913 14447 ft 398 kts 104°
2026-04-26 15:01 51.34770 0.30255 15084 ft 402 kts 104°
2026-04-26 15:02 51.34137 0.34632 15739 ft 406 kts 104°
2026-04-26 15:02 51.33491 0.39054 16375 ft 409 kts 105°
2026-04-26 15:02 51.32849 0.43429 17005 ft 413 kts 105°
2026-04-26 15:02 51.32179 0.48010 17561 ft 417 kts 105°
2026-04-26 15:03 51.31515 0.52494 18087 ft 423 kts 105°
2026-04-26 15:03 51.30801 0.57079 18683 ft 427 kts 106°
2026-04-26 15:03 51.30034 0.61693 19198 ft 430 kts 107°
2026-04-26 15:03 51.29235 0.66320 19703 ft 434 kts 107°
2026-04-26 15:04 51.28412 0.70972 20188 ft 437 kts 108°
2026-04-26 15:04 51.27567 0.75670 20693 ft 441 kts 108°
2026-04-26 15:04 51.26709 0.80398 21179 ft 445 kts 108°
2026-04-26 15:04 51.25838 0.85159 21661 ft 449 kts 108°
2026-04-26 15:05 51.24954 0.89953 22135 ft 452 kts 108°
2026-04-26 15:05 51.24351 0.93215 22449 ft 455 kts 108°
2026-04-26 15:05 51.23148 0.99670 23007 ft 461 kts 108°
2026-04-26 15:05 51.22226 1.04596 23454 ft 465 kts 108°
2026-04-26 15:06 51.21298 1.09549 23889 ft 468 kts 108°
2026-04-26 15:06 51.20346 1.14608 24272 ft 471 kts 108°
2026-04-26 15:06 51.19399 1.19623 24651 ft 474 kts 108°
2026-04-26 15:06 51.18440 1.24672 25024 ft 477 kts 108°
2026-04-26 15:07 51.16763 1.34998 25747 ft 484 kts 99°
2026-04-26 15:07 51.16310 1.40314 26117 ft 487 kts 97°
2026-04-26 15:07 51.15949 1.45685 26512 ft 489 kts 96°
2026-04-26 15:08 51.15633 1.51083 26897 ft 490 kts 95°
2026-04-26 15:08 51.15344 1.56496 27387 ft 490 kts 95°
2026-04-26 15:08 51.15067 1.61909 27870 ft 489 kts 95°
2026-04-26 15:08 51.14797 1.67300 28465 ft 482 kts 94°
2026-04-26 15:09 51.14543 1.72392 28796 ft 456 kts 94°
2026-04-26 15:09 51.14290 1.77402 28935 ft 454 kts 94°
2026-04-26 15:09 51.13769 1.87566 29017 ft 464 kts 95°
2026-04-26 15:10 51.13314 1.96064 29029 ft 461 kts 94°
2026-04-26 15:10 51.12694 2.07938 29031 ft 461 kts 94°
2026-04-26 15:11 51.12159 2.18119 29030 ft 461 kts 94°
2026-04-26 15:11 51.11610 2.28283 29024 ft 460 kts 94°
2026-04-26 15:12 51.11050 2.38376 29027 ft 462 kts 94°
2026-04-26 15:12 51.10462 2.48584 29019 ft 463 kts 94°
2026-04-26 15:13 51.09863 2.58780 29015 ft 461 kts 96°
2026-04-26 15:13 51.09135 2.63735 29000 ft 462 kts 110°
2026-04-26 15:13 51.07913 2.68450 29002 ft 462 kts 115°
2026-04-26 15:14 51.05131 2.77688 29017 ft 463 kts 117°
2026-04-26 15:14 51.02209 2.86801 29039 ft 463 kts 118°
2026-04-26 15:15 50.99218 2.95918 29027 ft 466 kts 118°
2026-04-26 15:15 50.96205 3.05004 29018 ft 464 kts 118°
2026-04-26 15:16 50.93179 3.14066 29010 ft 465 kts 118°
2026-04-26 15:16 50.90139 3.23116 28997 ft 465 kts 118°
2026-04-26 15:17 50.87605 3.30618 29004 ft 464 kts 118°
2026-04-26 15:17 50.84038 3.41114 28994 ft 467 kts 118°
2026-04-26 15:18 50.80946 3.50198 28987 ft 464 kts 118°
2026-04-26 15:18 50.77898 3.59119 28998 ft 465 kts 118°
2026-04-26 15:19 50.74796 3.68161 28998 ft 465 kts 118°
2026-04-26 15:19 50.71724 3.77067 28996 ft 464 kts 118°
2026-04-26 15:20 50.68619 3.86034 28992 ft 466 kts 118°
2026-04-26 15:20 50.65514 3.94989 28992 ft 465 kts 118°
2026-04-26 15:21 50.62936 4.02502 28990 ft 465 kts 116°
2026-04-26 15:21 50.60086 4.11585 28990 ft 466 kts 115°
2026-04-26 15:22 50.57299 4.20782 28989 ft 465 kts 115°
2026-04-26 15:22 50.54530 4.29975 28986 ft 464 kts 115°
2026-04-26 15:23 50.51762 4.39161 28987 ft 465 kts 115°
2026-04-26 15:23 50.48985 4.48349 28985 ft 465 kts 115°
2026-04-26 15:24 50.46208 4.57502 28988 ft 464 kts 115°
2026-04-26 15:24 50.43417 4.66655 28993 ft 465 kts 115°
2026-04-26 15:25 50.40618 4.75800 28994 ft 464 kts 115°
2026-04-26 15:25 50.37815 4.84933 28994 ft 465 kts 115°
2026-04-26 15:26 50.35017 4.94017 28993 ft 466 kts 115°
2026-04-26 15:26 50.32200 5.03128 28988 ft 464 kts 115°
2026-04-26 15:27 50.29372 5.12215 28986 ft 464 kts 114°
2026-04-26 15:27 50.26544 5.21279 28982 ft 463 kts 114°
2026-04-26 15:28 50.23717 5.30323 28984 ft 464 kts 115°
2026-04-26 15:28 50.20913 5.39266 28980 ft 464 kts 115°
2026-04-26 15:29 50.18070 5.48300 28974 ft 463 kts 115°
2026-04-26 15:30 50.12365 5.66304 28976 ft 462 kts 115°
2026-04-26 15:30 50.09506 5.75279 28964 ft 463 kts 115°
2026-04-26 15:31 50.04875 5.88431 28953 ft 463 kts 118°
2026-04-26 15:32 50.00596 6.00012 28961 ft 464 kts 118°
2026-04-26 15:32 49.96810 6.10158 28949 ft 463 kts 118°
2026-04-26 15:33 49.93573 6.18793 28948 ft 463 kts 119°
2026-04-26 15:33 49.90322 6.27432 28939 ft 463 kts 119°
2026-04-26 15:34 49.87060 6.36071 28953 ft 464 kts 119°
2026-04-26 15:34 49.83818 6.44623 28938 ft 462 kts 119°
2026-04-26 15:35 49.80554 6.53214 28930 ft 463 kts 119°
2026-04-26 15:35 49.77277 6.61807 28929 ft 464 kts 119°
2026-04-26 15:36 49.73996 6.70387 28931 ft 463 kts 119°
2026-04-26 15:36 49.70714 6.78963 28938 ft 463 kts 119°
2026-04-26 15:37 49.67429 6.87493 28925 ft 460 kts 119°
2026-04-26 15:37 49.64143 6.95997 28930 ft 462 kts 119°
2026-04-26 15:38 49.60852 7.04513 28944 ft 461 kts 119°
2026-04-26 15:38 49.57553 7.12997 28947 ft 461 kts 119°
2026-04-26 15:39 49.54245 7.21478 28958 ft 461 kts 120°
2026-04-26 15:39 49.51509 7.28475 28938 ft 457 kts 120°
2026-04-26 15:40 49.47670 7.38246 28950 ft 462 kts 120°
2026-04-26 15:40 49.44347 7.46677 28948 ft 459 kts 120°
2026-04-26 15:41 49.41037 7.55083 28918 ft 460 kts 120°
2026-04-26 15:41 49.37711 7.63484 28928 ft 458 kts 120°
2026-04-26 15:42 49.34415 7.71775 28924 ft 455 kts 121°
2026-04-26 15:42 49.31096 7.80085 28930 ft 458 kts 121°
2026-04-26 15:43 49.27772 7.88380 28933 ft 456 kts 121°
2026-04-26 15:44 49.22774 8.00810 28946 ft 458 kts 121°
2026-04-26 15:44 49.17810 8.13134 28945 ft 454 kts 121°
2026-04-26 15:45 49.12797 8.25472 28934 ft 456 kts 122°
2026-04-26 15:46 49.07780 8.37769 28935 ft 455 kts 122°
2026-04-26 15:46 49.04988 8.44588 28934 ft 456 kts 122°
2026-04-26 15:47 48.99376 8.57740 28929 ft 430 kts 127°
2026-04-26 15:48 48.95674 8.65002 28924 ft 438 kts 129°
2026-04-26 15:48 48.91824 8.72219 28925 ft 437 kts 130°
2026-04-26 15:48 48.89705 8.75503 28902 ft 435 kts 145°
2026-04-26 15:49 48.87075 8.77727 28882 ft 432 kts 163°
2026-04-26 15:49 48.84176 8.78641 28844 ft 422 kts 181°
2026-04-26 15:49 48.81329 8.78240 28831 ft 414 kts 195°
2026-04-26 15:50 48.75731 8.76141 28843 ft 415 kts 198°
2026-04-26 15:50 48.70081 8.73954 28180 ft 424 kts 197°
2026-04-26 15:50 48.67226 8.72925 27418 ft 421 kts 196°
2026-04-26 15:51 48.64374 8.71954 26666 ft 417 kts 195°
2026-04-26 15:51 48.61547 8.71045 25962 ft 413 kts 195°
2026-04-26 15:51 48.58742 8.70182 25279 ft 410 kts 194°
2026-04-26 15:51 48.55959 8.69358 24622 ft 405 kts 194°
2026-04-26 15:52 48.53199 8.68554 23988 ft 401 kts 194°
2026-04-26 15:52 48.50470 8.67748 23287 ft 397 kts 194°
2026-04-26 15:52 48.47776 8.66944 22579 ft 392 kts 194°
2026-04-26 15:52 48.46016 8.66416 22124 ft 389 kts 194°
2026-04-26 15:53 48.42489 8.65359 21249 ft 383 kts 194°
2026-04-26 15:53 48.39889 8.64578 20622 ft 378 kts 194°
2026-04-26 15:53 48.37318 8.63806 20018 ft 374 kts 194°
2026-04-26 15:53 48.34779 8.63044 19436 ft 369 kts 194°
2026-04-26 15:54 48.32306 8.62302 18867 ft 365 kts 194°
2026-04-26 15:54 48.29828 8.61568 18302 ft 361 kts 194°
2026-04-26 15:54 48.27380 8.60840 17691 ft 356 kts 194°
2026-04-26 15:54 48.24963 8.60119 17102 ft 352 kts 194°
2026-04-26 15:55 48.22583 8.59408 16530 ft 347 kts 194°
2026-04-26 15:55 48.20226 8.58704 15991 ft 342 kts 193°
2026-04-26 15:55 48.17907 8.58012 15468 ft 338 kts 193°
2026-04-26 15:55 48.15621 8.57333 14985 ft 332 kts 193°
2026-04-26 15:56 48.13363 8.56668 14541 ft 330 kts 193°
2026-04-26 15:56 48.11111 8.55999 14133 ft 331 kts 193°
2026-04-26 15:56 48.08850 8.55326 13737 ft 330 kts 193°
2026-04-26 15:56 48.06600 8.54658 13353 ft 328 kts 193°
2026-04-26 15:57 48.04368 8.54003 13007 ft 326 kts 193°
2026-04-26 15:57 48.02173 8.53358 12691 ft 325 kts 193°
2026-04-26 15:57 47.99930 8.52705 12392 ft 324 kts 193°
2026-04-26 15:57 47.98467 8.52277 12208 ft 322 kts 193°
2026-04-26 15:58 47.95557 8.51419 11866 ft 321 kts 192°
2026-04-26 15:58 47.93361 8.50768 11623 ft 320 kts 192°
2026-04-26 15:58 47.91225 8.50144 11409 ft 306 kts 193°
2026-04-26 15:58 47.89179 8.49550 11210 ft 293 kts 192°
2026-04-26 15:59 47.87214 8.48988 11040 ft 284 kts 193°
2026-04-26 15:59 47.85278 8.48431 10878 ft 284 kts 193°
2026-04-26 15:59 47.83339 8.47856 10722 ft 284 kts 192°
2026-04-26 15:59 47.81408 8.47290 10584 ft 282 kts 193°
2026-04-26 16:00 47.79483 8.46716 10440 ft 282 kts 193°
2026-04-26 16:00 47.77558 8.46153 10299 ft 281 kts 192°
2026-04-26 16:00 47.75639 8.45595 10165 ft 279 kts 192°
2026-04-26 16:00 47.73726 8.45033 10047 ft 281 kts 193°
2026-04-26 16:01 47.71818 8.44485 9926 ft 280 kts 193°
2026-04-26 16:01 47.69928 8.43939 9803 ft 280 kts 192°
2026-04-26 16:01 47.68022 8.43373 9597 ft 280 kts 192°
2026-04-26 16:01 47.66117 8.42860 8936 ft 268 kts 183°
2026-04-26 16:02 47.64295 8.43092 8378 ft 265 kts 167°
2026-04-26 16:02 47.62503 8.43800 7813 ft 266 kts 162°
2026-04-26 16:02 47.60749 8.44625 7240 ft 263 kts 170°
2026-04-26 16:02 47.60134 8.44758 7051 ft 264 kts 180°
2026-04-26 16:03 47.57283 8.43347 6103 ft 267 kts 217°
2026-04-26 16:03 47.55886 8.41567 5525 ft 263 kts 236°
2026-04-26 16:03 47.55130 8.39116 4963 ft 261 kts 265°
2026-04-26 16:03 47.55266 8.36467 4425 ft 257 kts 295°
2026-04-26 16:04 47.56248 8.34348 4200 ft 255 kts 324°
2026-04-26 16:04 47.57799 8.33260 4090 ft 244 kts 354°
2026-04-26 16:04 47.59380 8.33553 4002 ft 222 kts 27°
2026-04-26 16:04 47.60497 8.35040 3986 ft 221 kts 61°
2026-04-26 16:05 47.60821 8.36482 3980 ft 217 kts 84°
2026-04-26 16:05 47.60587 8.38612 3975 ft 217 kts 109°
2026-04-26 16:05 47.59975 8.40694 3980 ft 215 kts 114°
2026-04-26 16:05 47.59276 8.42637 3982 ft 207 kts 117°
2026-04-26 16:06 47.58519 8.44341 3987 ft 191 kts 131°
2026-04-26 16:06 47.57495 8.45583 3738 ft 201 kts 142°
2026-04-26 16:06 47.56325 8.46778 3296 ft 203 kts 144°
2026-04-26 16:06 47.55199 8.47855 3120 ft 187 kts 145°
2026-04-26 16:07 47.54078 8.48875 2897 ft 184 kts 145°
2026-04-26 16:07 47.53033 8.49752 2686 ft 163 kts 148°
2026-04-26 16:07 47.52049 8.50483 2423 ft 155 kts 149°
2026-04-26 16:07 47.51075 8.51164 2168 ft 154 kts 153°
2026-04-26 16:08 47.50101 8.51784 2007 ft 153 kts 153°
2026-04-26 16:08 47.49113 8.52456 1846 ft 158 kts 150°
2026-04-26 16:08 47.48119 8.53211 1590 ft 165 kts 152°
2026-04-26 16:08 47.47116 8.53901 1407 ft 150 kts 152°
2026-04-26 16:09 47.46260 8.54498 1385 ft 117 kts 155°
2026-04-26 16:09 47.45639 8.54925 1399 ft 81 kts 154°
2026-04-26 16:09 47.45214 8.55224 1401 ft 62 kts 154°
2026-04-26 16:09 47.44947 8.55400 1398 ft 25 kts 154°
2026-04-26 16:10 47.44904 8.55460 1395 ft 0 kts 103°
2026-04-26 16:10 47.44908 8.55486 1399 ft 1 kts 79°
2026-04-26 16:10 47.44911 8.55497 1395 ft 3 kts 70°
2026-04-26 16:10 47.44914 8.55506 1404 ft 0 kts 70°
2026-04-26 16:11 47.44921 8.55530 1402 ft 6 kts 68°
2026-04-26 16:11 47.44928 8.55557 1403 ft 0 kts 68°
2026-04-26 16:11 47.44933 8.55572 1401 ft 4 kts 63°
2026-04-26 16:12 47.44951 8.55619 1405 ft 8 kts 60°
2026-04-26 16:12 47.44976 8.55696 1404 ft 7 kts 60°
2026-04-26 16:12 47.45087 8.55681 1412 ft 7 kts 337°
2026-04-26 16:13 47.45117 8.55661 1412 ft 4 kts 334°
2026-04-26 16:13 47.45162 8.55629 1411 ft 11 kts 334°
2026-04-26 16:13 47.45248 8.55583 1409 ft 10 kts 359°
2026-04-26 16:13 47.45268 8.55597 1409 ft 0 kts 42°
2026-04-26 16:14 47.45272 8.55619 1407 ft 3 kts 78°
2026-04-26 16:14 47.45270 8.55651 1407 ft 3 kts 96°
2026-04-26 16:14 47.45265 8.55725 1407 ft 7 kts 92°
2026-04-26 16:15 47.45283 8.55745 1409 ft 1 kts
2026-04-26 16:15 47.45306 8.55748 1411 ft 4 kts
2026-04-26 16:15 47.45337 8.55753 1410 ft 5 kts
2026-04-26 16:16 47.45351 8.55755 1414 ft 0 kts